Location: Newark
(41.8083°N, 72.2500°W)
Time: 02:06:03
(UTC+00:00)

Vanguard 1 Rocket - Pass Details

Date: 16 December 2021
Orbit: 651 x 4224 km, 34.3° (Epoch: 15 January)

Event Time Altitude Azimuth Distance (km) Brightness Sun altitude
Exits shadow 08:42:00 47° 203° (SSW) 2,730 9.5 -37.8°
Maximum altitude 08:42:41 47° 195° (SSW) 2,786 9.6 -37.7°
Drops below altitude 10° 09:00:03 10° 130° (SE) 6,532 12.3 -34.5°
Sets 09:06:24 0° 126° (SE) 7,980 13.0 -33.3°
